Wetbulb
62.74 62.74 62.70 62.39 61.72 61.05 61.06 60.99 60.96 60.55 59.74 59.45 59.15 58.85 58.53 58.21 58.38 58.11 58.05 58.21 57.89 57.67 57.48 58.07 59.26 60.45 63.54 59.60 61.26 71.74 78.56 78.36 76.88 75.77 73.15 70.19 68.66 67.53 64.19 65.42 65.37 64.44 65.65 66.65 67.91 67.99 67.92
62.65 62.54 62.44 62.19 61.88 61.43 60.92 60.81 60.86 60.53 60.13 59.52 58.79 58.66 58.74 58.54 57.98 58.00 57.96 58.23 57.62 57.30 57.39 58.10 59.74 60.50 62.01 56.25 69.36 72.86 76.27 75.60 75.49 74.94 72.19 71.24 70.19 70.11 66.39 65.46 63.84 64.45 64.76 66.04 67.30 67.52 67.92
62.39 62.34 62.28 62.04 61.64 61.32 60.68 60.56 60.47 60.21 59.92 59.71 58.90 58.27 58.35 58.16 57.76 57.64 57.53 57.37 57.24 56.95 57.30 58.52 60.55 63.21 58.78 56.16 72.43 73.18 75.54 74.85 75.70 74.89 72.05 72.50 72.29 69.76 68.75 64.18 66.11 64.84 61.68 64.70 65.70 66.65 65.69
62.06 62.02 61.99 61.80 61.40 60.86 60.54 60.39 60.20 59.78 59.53 59.45 58.84 58.22 57.99 57.82 57.44 57.16 56.85 56.41 56.42 56.84 58.03 59.85 61.35 63.77 54.95 66.88 73.96 73.16 74.78 73.54 75.62 75.07 73.10 73.18 72.92 70.34 67.28 67.34 65.41 62.92 63.27 58.73 61.30 65.23 65.08
61.78 61.63 61.51 61.45 61.09 60.66 60.26 59.88 59.49 59.27 59.00 58.86 58.68 57.81 57.21 56.98 56.80 56.16 55.83 55.49 56.98 58.59 59.70 61.47 64.03 61.84 54.25 70.64 69.43 71.69 73.44 71.05 73.39 73.64 73.77 72.20 69.97 66.32 66.28 62.68 60.89 60.27 55.63 57.82 59.93 64.71 64.24
61.65 61.50 61.32 61.28 60.99 60.33 59.70 59.04 58.99 58.96 58.78 58.55 58.27 57.71 57.07 56.50 55.73 55.25 55.11 55.62 60.06 60.74 63.00 64.83 64.25 57.27 56.48 56.61 67.57 69.87 72.15 71.04 69.58 68.89 65.81 63.99 65.18 63.74 63.69 61.10 54.17 55.52 56.45 58.50 57.83 63.20 63.71
61.57 61.48 61.28 60.99 60.74 60.05 59.21 58.77 58.78 58.82 58.80 58.57 58.13 57.33 56.34 55.73 55.27 54.78 56.24 61.78 61.42 60.45 59.97 54.60 55.14 55.79 57.32 63.35 69.76 67.11 68.12 67.34 64.47 63.46 57.73 64.10 61.74 59.90 60.48 61.20 60.17 58.36 57.17 56.75 60.75 63.30 62.16
61.38 61.05 60.96 60.64 60.37 59.65 58.75 58.61 58.50 58.60 58.46 58.27 57.73 57.11 55.99 54.84 54.57 54.27 59.20 62.24 61.17 60.65 55.68 59.20 57.92 57.43 60.90 62.95 60.75 64.70 65.92 61.48 59.65 57.69 62.41 61.28 59.15 61.64 61.92 60.36 58.52 56.70 56.28 57.53 60.98 63.07 62.41
61.10 60.61 60.52 60.25 59.96 59.00 58.32 58.44 58.14 58.20 57.99 57.72 57.36 56.68 55.60 53.93 53.80 56.88 60.35 59.78 63.94 63.11 57.85 57.43 59.53 57.65 58.85 60.51 60.46 62.03 63.35 63.21 60.32 59.20 60.23 59.21 61.00 62.22 61.23 60.07 56.78 56.38 56.46 58.29 58.27 61.71 62.10
60.77 60.51 60.20 59.96 59.58 58.54 58.33 58.12 58.12 57.77 57.59 57.40 57.12 55.84 55.25 54.14 55.01 61.40 60.51 63.69 63.68 62.81 53.82 53.81 55.25 57.53 59.24 59.31 57.29 64.20 63.47 63.55 60.88 58.01 58.67 59.04 61.48 60.07 59.19 57.45 56.52 55.16 59.57 58.78 60.00 58.70 57.18
60.15 59.64 59.20 59.10 58.75 58.23 57.80 57.66 57.66 57.61 57.16 57.04 56.86 55.53 54.88 52.38 61.58 61.90 62.50 63.61 63.54 61.08 45.25 53.51 55.45 61.90 59.40 56.92 58.61 61.05 66.30 63.44 58.75 57.42 58.98 57.44 58.01 57.05 55.79 56.33 57.50 58.39 60.14 60.21 60.62 59.34 58.47
59.06 58.97 58.85 58.52 58.37 57.99 57.44 57.11 57.25 56.98 56.76 56.43 55.76 55.10 54.18 55.56 60.16 62.16 64.05 63.17 61.32 54.07 43.77 51.36 55.82 55.56 55.55 56.27 57.44 60.53 61.79 62.95 61.39 58.36 58.99 57.50 60.63 58.23 58.37 58.26 59.09 62.69 61.71 61.19 60.70 58.83 54.39
58.44 58.55 58.20 58.02 58.02 57.69 57.21 57.03 56.93 56.62 56.29 55.28 53.27 53.28 54.82 60.55 62.69 64.28 63.87 61.79 55.27 50.61 54.83 51.12 52.61 54.97 54.44 53.63 56.62 58.39 56.95 55.91 54.04 51.87 52.72 55.64 56.35 59.56 58.79 57.42 62.11 61.69 58.98 53.10 52.05 53.13 50.78
58.35 57.91 57.86 57.64 57.63 57.37 57.04 57.11 56.70 56.21 55.79 54.28 51.72 52.39 57.09 61.14 64.46 63.21 63.10 59.58 51.22 52.54 52.32 54.33 53.91 54.15 51.98 54.27 55.79 56.79 56.00 54.63 57.46 56.01 54.68 52.13 52.11 57.11 58.98 57.68 57.51 59.38 58.33 52.06 45.87 48.25 50.91
58.23 58.02 57.85 57.40 57.37 57.19 57.15 56.95 56.64 55.85 55.22 53.93 52.28 62.44 64.62 66.48 65.02 64.28 60.64 55.08 54.03 54.38 54.06 52.63 53.79 51.67 51.56 53.32 53.15 54.26 55.41 55.10 56.52 57.81 53.97 52.77 54.47 56.37 56.15 57.54 58.79 58.12 54.95 57.07 52.98 54.77 52.21
58.21 57.89 57.62 57.43 57.34 57.17 57.21 57.09 56.33 55.63 55.02 53.77 64.95 66.48 64.65 63.88 64.93 63.05 60.05 52.02 55.97 58.01 56.59 54.49 50.81 52.64 50.35 52.21 51.81 52.68 53.39 55.54 55.23 58.11 60.01 55.33 51.36 54.95 54.28 56.30 56.49 56.22 58.44 52.70 53.77 48.25 46.89
58.01 57.65 57.57 57.62 57.37 57.24 57.37 57.03 56.31 55.14 54.36 53.57 64.75 64.64 65.87 65.11 64.21 62.76 57.33 56.95 57.88 59.43 59.54 57.10 55.23 53.01 53.15 52.34 52.93 52.71 53.17 54.94 56.06 56.54 58.29 57.25 54.11 53.82 55.42 54.40 54.47 55.28 54.56 54.67 55.47 53.37 49.99
57.67 57.21 57.64 57.58 57.24 57.17 57.28 56.79 55.89 54.31 53.35 56.89 66.34 62.46 66.80 65.96 61.73 62.81 58.22 57.80 53.42 58.74 60.34 59.89 59.84 58.23 56.20 54.90 52.81 52.38 53.50 56.39 58.17 56.75 54.22 56.94 54.77 53.90 53.38 56.36 56.73 56.11 54.79 54.84 51.54 52.19 53.38
57.66 57.43 57.47 57.59 57.30 57.39 57.39 56.68 55.60 54.35 53.75 59.49 65.41 65.29 67.92 65.80 58.51 58.34 59.67 58.36 58.95 58.51 58.39 58.90 58.83 59.78 59.57 56.95 54.72 55.36 56.70 58.43 57.81 56.74 56.35 57.06 54.77 51.68 52.48 55.39 57.26 55.97 56.84 55.74 55.38 55.10 52.82
57.24 57.60 57.62 57.27 57.41 57.22 57.19 56.57 55.46 54.69 54.17 58.70 64.39 61.47 64.46 65.65 64.42 60.17 58.74 58.14 57.10 58.06 57.89 59.01 58.46 60.11 59.29 57.64 58.86 56.73 56.76 57.86 58.61 58.58 59.66 62.52 56.32 54.32 52.22 54.84 56.63 54.62 56.36 57.37 56.62 53.13 54.26
55.82 56.22 57.20 57.31 57.21 57.13 57.22 56.79 55.77 54.90 54.15 59.97 64.12 61.25 61.26 60.55 60.21 59.67 59.93 58.89 57.13 56.41 58.69 59.91 58.46 57.78 57.53 56.81 56.81 56.20 57.58 58.46 58.60 57.45 59.32 58.87 54.90 56.76 56.13 56.40 56.05 55.69 56.64 57.04 57.42 57.62 54.42
55.15 55.81 56.34 57.41 57.27 56.91 56.95 57.11 56.32 54.92 53.79 65.32 62.28 61.83 65.03 63.32 60.33 59.88 56.63 58.31 56.85 57.33 57.44 56.03 56.01 56.82 58.24 56.47 56.73 55.73 57.48 58.81 57.70 59.48 58.60 58.00 55.27 57.46 54.82 55.70 56.86 55.64 57.70 58.41 57.97 57.48 59.10
54.53 55.01 55.84 56.22 57.29 56.46 56.53 57.02 56.70 54.90 56.05 64.23 64.88 65.58 62.34 56.00 59.65 59.22 59.56 58.20 57.27 58.16 57.95 58.52 57.50 56.99 56.57 57.77 59.41 59.82 58.98 58.75 58.51 57.72 56.89 56.78 56.62 54.47 52.46 55.36 55.35 53.36 57.32 58.77 59.63 60.51 60.53
53.75 54.06 54.60 55.42 56.24 56.15 55.85 56.55 57.13 55.79 54.96 59.35 63.31 62.80 61.79 60.25 61.11 60.98 58.92 58.88 57.90 58.67 57.50 59.14 60.15 58.66 60.99 62.86 60.51 59.19 58.06 57.85 57.75 58.83 58.82 57.16 57.20 56.61 52.87 54.73 48.72 57.00 62.48 61.38 60.38 60.72 62.31
53.26 53.49 53.98 54.42 55.29 55.62 55.49 56.12 57.41 56.78 55.28 59.48 64.02 62.73 61.78 60.39 61.83 59.61 59.05 59.05 59.86 60.23 59.40 59.97 60.71 62.56 63.28 59.54 56.76 54.52 54.91 55.43 56.37 56.99 57.37 58.48 58.46 55.45 51.57 51.15 53.63 55.27 60.43 61.37 60.61 60.72 63.51
53.14 53.04 53.23 53.60 54.23 55.00 55.57 55.42 56.80 57.49 55.52 60.41 62.92 64.18 63.02 59.35 59.31 60.53 60.31 60.00 60.36 60.15 59.24 60.14 63.16 63.63 62.45 60.02 57.33 52.55 50.50 53.19 53.19 54.69 57.17 57.28 58.30 56.05 54.02 49.53 47.55 57.48 61.61 64.89 65.04 58.30 65.09
53.03 52.76 52.76 52.72 53.07 53.85 54.94 55.76 56.82 57.90 56.17 57.26 60.98 63.53 62.56 59.76 62.60 60.85 60.64 60.84 62.11 60.58 59.62 60.15 59.98 60.70 62.24 58.76 55.16 54.25 53.93 57.40 52.45 52.31 53.77 54.86 56.26 54.18 53.91 51.47 52.99 59.14 62.31 65.04 56.25 58.26 66.42
52.85 52.65 52.57 52.43 52.70 53.68 54.85 56.24 56.41 57.79 57.42 57.38 61.16 63.89 61.42 60.15 61.37 61.68 62.02 60.14 60.88 61.53 58.72 60.59 59.30 60.06 60.19 56.69 56.34 57.95 57.06 58.40 56.73 58.05 55.71 55.27 53.48 52.96 54.18 51.60 49.64 63.29 63.07 59.90 63.45 66.08 67.10
52.58 52.46 52.69 53.33 52.82 54.79 56.42 57.10 56.36 57.64 57.32 56.95 58.07 64.53 63.24 59.57 60.43 63.04 63.48 64.69 63.65 63.40 61.21 61.94 59.80 58.89 62.08 59.64 59.43 60.94 57.69 58.59 58.33 54.27 60.33 55.94 59.48 58.79 57.33 58.23 64.24 65.87 65.14 66.56 67.25 67.07 68.40
MSLP
1021.27 1020.75 1020.24 1019.69 1019.20 1018.63 1018.30 1017.83 1017.33 1016.83 1016.38 1015.95 1015.58 1015.22 1014.96 1014.78 1014.75 1014.74 1014.73 1014.64 1014.70 1014.69 1014.65 1014.30 1014.05 1013.64 1012.91 1010.55 1008.71 1009.49 1009.92 1010.33 1010.31 1009.51 1008.83 1008.64 1008.09 1007.49 1007.02 1007.56 1007.85 1007.94 1008.42 1008.52 1008.54 1008.65 1008.85
1021.38 1020.85 1020.26 1019.67 1019.10 1018.58 1018.12 1017.65 1017.22 1016.71 1016.19 1015.74 1015.40 1015.04 1014.65 1014.49 1014.45 1014.44 1014.48 1014.42 1014.41 1014.46 1014.40 1014.14 1013.87 1013.58 1011.76 1009.12 1008.91 1009.34 1009.39 1010.02 1009.35 1008.97 1008.40 1008.47 1007.95 1007.84 1007.17 1007.28 1007.30 1008.17 1008.56 1008.58 1008.52 1008.47 1008.94
1021.52 1020.97 1020.36 1019.75 1019.11 1018.69 1018.17 1017.61 1017.10 1016.56 1016.06 1015.59 1015.14 1014.78 1014.41 1014.22 1014.22 1014.23 1014.27 1014.22 1014.26 1014.28 1014.22 1014.01 1013.54 1012.91 1010.49 1009.39 1008.85 1009.08 1009.32 1009.24 1009.12 1008.69 1008.24 1008.35 1008.28 1007.68 1007.25 1007.06 1007.90 1008.11 1008.77 1008.89 1009.09 1008.82 1009.09
1021.68 1021.10 1020.53 1019.90 1019.23 1018.70 1018.22 1017.65 1017.03 1016.53 1015.90 1015.39 1014.96 1014.55 1014.19 1014.05 1013.98 1014.07 1014.11 1014.05 1014.01 1014.03 1013.93 1013.62 1013.41 1012.01 1008.78 1009.32 1008.88 1009.04 1009.08 1009.19 1009.19 1008.93 1008.47 1008.53 1008.30 1007.53 1007.15 1007.25 1007.06 1007.14 1008.26 1008.52 1009.51 1009.09 1009.53
1021.78 1021.17 1020.60 1019.90 1019.26 1018.70 1018.23 1017.64 1017.16 1016.51 1015.82 1015.20 1014.77 1014.36 1014.04 1013.89 1013.86 1013.92 1013.99 1013.96 1013.70 1013.61 1013.61 1013.36 1012.60 1010.74 1008.67 1009.91 1009.00 1008.86 1008.92 1008.78 1008.91 1008.87 1008.72 1008.74 1007.91 1007.04 1006.83 1005.91 1005.20 1005.91 1006.75 1007.93 1008.73 1008.89 1008.87
1021.98 1021.24 1020.62 1019.99 1019.45 1018.86 1018.19 1017.60 1017.00 1016.24 1015.68 1015.09 1014.56 1014.11 1013.85 1013.73 1013.74 1013.77 1013.81 1013.71 1013.28 1013.23 1013.07 1012.51 1011.40 1009.98 1008.65 1007.76 1008.36 1008.84 1008.74 1008.49 1008.51 1008.37 1008.20 1007.83 1006.95 1006.07 1005.65 1004.94 1004.69 1005.56 1005.80 1007.12 1007.82 1008.49 1008.45
1021.84 1021.19 1020.67 1020.03 1019.26 1018.46 1017.85 1017.38 1016.73 1016.14 1015.58 1015.00 1014.44 1013.98 1013.75 1013.64 1013.64 1013.65 1013.43 1012.93 1012.70 1011.57 1010.69 1008.93 1008.12 1007.70 1007.26 1007.77 1008.22 1008.25 1008.31 1008.28 1008.05 1007.72 1006.75 1006.63 1005.95 1004.51 1004.65 1004.85 1005.22 1005.54 1005.65 1006.16 1007.17 1007.86 1008.01
1021.87 1021.29 1020.62 1019.89 1019.19 1018.70 1018.19 1017.50 1016.86 1016.17 1015.50 1014.87 1014.32 1013.89 1013.65 1013.60 1013.60 1013.57 1012.90 1009.97 1009.17 1009.08 1008.03 1008.24 1008.08 1007.69 1007.38 1006.85 1007.08 1007.67 1007.95 1007.38 1007.17 1006.24 1006.33 1006.04 1004.75 1004.60 1004.75 1004.98 1004.67 1004.73 1005.03 1005.42 1006.80 1007.61 1007.75
1021.89 1021.14 1020.54 1020.00 1019.49 1018.85 1018.13 1017.42 1016.72 1016.12 1015.45 1014.75 1014.20 1013.76 1013.60 1013.60 1013.58 1013.14 1010.96 1009.31 1008.90 1008.66 1007.01 1007.47 1007.14 1006.54 1006.60 1006.88 1005.96 1006.90 1007.32 1006.62 1006.12 1005.70 1005.55 1004.93 1004.05 1004.64 1004.59 1004.19 1003.76 1003.44 1004.13 1004.85 1005.75 1007.15 1007.62
1021.90 1021.26 1020.79 1020.23 1019.46 1018.70 1017.92 1017.23 1016.57 1015.81 1015.14 1014.58 1014.09 1013.75 1013.57 1013.55 1013.69 1010.83 1009.52 1009.00 1008.89 1008.77 1006.13 1006.56 1006.20 1005.86 1006.30 1005.88 1005.95 1006.49 1006.47 1005.98 1005.99 1005.48 1005.31 1004.81 1004.35 1004.47 1004.12 1003.69 1003.53 1002.94 1004.30 1004.82 1005.65 1006.01 1005.66
1022.18 1021.53 1020.81 1020.10 1019.36 1018.67 1017.92 1017.12 1016.28 1015.57 1014.89 1014.29 1013.83 1013.58 1013.47 1013.60 1011.40 1009.79 1008.99 1008.75 1008.56 1008.26 1004.81 1005.68 1005.53 1005.93 1005.56 1005.35 1005.29 1006.34 1006.29 1006.13 1005.38 1005.31 1005.76 1004.15 1004.23 1004.13 1003.74 1003.73 1004.02 1003.95 1004.24 1004.40 1004.95 1004.98 1005.21
1022.39 1021.64 1020.86 1020.14 1019.36 1018.59 1017.73 1016.96 1016.11 1015.24 1014.48 1013.72 1013.19 1013.04 1013.35 1013.16 1011.61 1009.02 1008.92 1008.73 1008.25 1006.28 1004.61 1004.78 1004.97 1005.07 1004.92 1004.59 1004.85 1005.78 1006.23 1006.20 1005.53 1005.38 1005.21 1004.64 1004.42 1004.68 1003.83 1004.16 1004.26 1004.40 1004.12 1004.15 1004.28 1003.94 1003.23
1022.55 1021.73 1020.94 1020.25 1019.39 1018.51 1017.72 1016.88 1015.95 1014.94 1014.08 1013.25 1012.54 1012.42 1012.87 1010.95 1008.87 1009.13 1008.85 1007.82 1005.80 1003.62 1004.64 1004.30 1003.93 1004.18 1003.79 1003.99 1004.45 1004.89 1005.24 1005.33 1005.01 1004.92 1004.32 1004.17 1003.77 1003.83 1004.10 1003.77 1004.26 1003.96 1002.68 1001.64 1001.72 1001.78 1002.72
1022.62 1021.92 1021.04 1020.25 1019.44 1018.55 1017.74 1016.75 1015.82 1014.82 1013.93 1013.18 1012.60 1012.36 1011.61 1010.37 1009.55 1009.34 1008.22 1006.14 1004.06 1003.99 1003.35 1003.65 1003.49 1003.60 1003.39 1003.81 1003.99 1004.20 1004.54 1004.40 1004.46 1003.90 1002.99 1003.40 1003.10 1003.05 1003.11 1003.01 1002.47 1002.89 1002.15 1001.10 1001.12 1001.44 1002.04
1022.54 1021.88 1021.15 1020.38 1019.57 1018.60 1017.72 1016.70 1015.77 1014.73 1013.84 1013.18 1012.87 1011.16 1009.76 1008.89 1009.18 1009.21 1006.91 1003.97 1003.82 1003.51 1003.39 1003.19 1003.29 1003.13 1003.15 1003.46 1003.63 1003.89 1003.88 1003.44 1003.56 1004.08 1003.14 1002.80 1002.07 1002.64 1002.90 1002.70 1002.94 1002.32 1002.26 1001.79 1001.16 1001.85 1001.43
1022.57 1021.97 1021.27 1020.49 1019.63 1018.74 1017.69 1016.71 1015.65 1014.61 1013.54 1012.84 1011.21 1009.14 1008.23 1008.70 1008.77 1007.82 1005.47 1004.17 1003.86 1004.09 1003.70 1002.84 1002.46 1002.52 1002.53 1002.91 1003.36 1003.29 1003.17 1003.13 1003.07 1003.45 1003.35 1002.89 1002.35 1002.38 1003.09 1003.07 1003.13 1002.44 1002.06 1001.37 1001.08 1000.87 1001.10
1022.62 1022.05 1021.34 1020.57 1019.76 1018.87 1017.83 1016.84 1015.74 1014.63 1013.18 1012.23 1010.48 1007.51 1007.83 1008.13 1008.22 1006.16 1003.91 1004.15 1003.95 1003.93 1003.90 1003.39 1002.60 1002.46 1002.14 1002.48 1002.59 1002.58 1002.71 1003.39 1003.30 1003.32 1003.68 1002.92 1002.38 1002.32 1002.50 1001.88 1001.32 1002.24 1001.52 1001.23 1000.72 1000.98 1000.60
1022.61 1022.07 1021.43 1020.69 1019.90 1019.02 1018.07 1017.11 1016.10 1015.13 1013.38 1011.44 1009.32 1006.29 1007.34 1007.54 1005.73 1004.85 1003.89 1004.35 1004.37 1003.72 1003.75 1003.32 1003.22 1002.95 1002.86 1003.07 1002.78 1002.57 1002.55 1002.92 1003.86 1003.53 1003.37 1003.34 1001.87 1001.19 1001.07 1001.98 1002.15 1001.58 1000.73 1000.58 1000.28 1000.65 1001.31
1022.60 1022.01 1021.47 1020.81 1020.05 1019.21 1018.34 1017.38 1016.46 1015.71 1015.22 1013.45 1009.15 1007.07 1006.74 1006.34 1004.40 1004.06 1004.45 1004.17 1004.06 1003.50 1003.62 1003.34 1003.26 1003.43 1003.60 1003.19 1003.13 1002.97 1003.19 1003.89 1003.83 1003.58 1003.15 1003.07 1002.01 1000.91 1001.41 1002.11 1002.20 1001.34 1001.48 1001.10 1000.65 1000.47 1000.78
1022.59 1022.09 1021.50 1020.87 1020.16 1019.45 1018.62 1017.75 1016.69 1015.66 1015.18 1014.30 1009.94 1006.73 1005.92 1005.73 1005.87 1004.45 1003.96 1004.04 1003.93 1004.41 1004.23 1004.18 1004.00 1003.62 1003.37 1003.29 1003.47 1003.27 1003.32 1003.89 1004.12 1003.86 1004.03 1003.39 1001.75 1001.00 1000.78 1001.50 1001.71 1001.39 1001.65 1001.59 1000.63 999.88 1000.25
1022.66 1022.09 1021.53 1020.98 1020.39 1019.74 1018.96 1018.05 1017.12 1015.70 1014.50 1013.97 1010.47 1008.78 1008.69 1006.02 1005.71 1005.16 1004.68 1004.68 1004.22 1004.32 1004.56 1004.46 1004.23 1004.16 1003.93 1003.48 1003.32 1003.45 1003.36 1003.66 1003.92 1004.27 1003.88 1002.80 1001.78 1002.21 1002.14 1002.19 1002.23 1002.17 1001.94 1001.83 1001.39 1000.91 1000.81
1022.79 1022.28 1021.64 1021.01 1020.53 1020.00 1019.31 1018.49 1017.60 1016.32 1014.22 1012.51 1011.43 1010.44 1009.16 1007.61 1006.96 1006.04 1005.80 1005.43 1004.88 1004.90 1004.98 1004.71 1004.63 1004.85 1004.62 1004.45 1004.61 1004.20 1004.03 1003.45 1003.74 1003.56 1003.26 1002.48 1002.55 1002.57 1002.21 1002.36 1002.32 1002.02 1002.35 1002.36 1002.12 1002.30 1002.28
1022.82 1022.36 1021.83 1021.26 1020.72 1020.21 1019.64 1018.97 1018.24 1017.43 1015.21 1013.39 1013.07 1012.15 1010.87 1008.47 1007.00 1006.41 1006.28 1006.29 1006.04 1006.01 1005.94 1005.68 1005.49 1005.16 1005.13 1005.74 1005.71 1005.36 1004.96 1004.64 1004.31 1004.08 1003.24 1002.65 1002.24 1002.35 1001.86 1002.64 1002.35 1002.20 1002.31 1002.46 1002.39 1002.71 1002.40
1022.85 1022.37 1021.89 1021.38 1020.83 1020.32 1019.87 1019.36 1018.74 1018.35 1018.22 1016.96 1014.82 1013.65 1010.91 1008.22 1007.66 1007.26 1007.09 1007.02 1006.80 1006.88 1006.34 1006.16 1006.04 1005.84 1006.41 1006.45 1005.85 1005.34 1004.83 1004.59 1004.57 1004.21 1003.94 1003.32 1003.13 1003.08 1002.62 1003.03 1002.42 1002.87 1003.28 1003.33 1003.02 1003.22 1003.30
1022.87 1022.41 1021.94 1021.44 1020.91 1020.43 1020.01 1019.53 1019.04 1018.61 1018.34 1017.14 1015.45 1014.26 1012.05 1009.36 1008.70 1008.06 1007.72 1007.48 1007.42 1007.62 1007.03 1006.50 1006.52 1006.71 1006.59 1006.00 1004.98 1004.41 1004.25 1004.38 1004.36 1004.75 1004.21 1004.09 1003.66 1003.34 1003.32 1002.91 1002.73 1002.77 1003.49 1003.50 1003.11 1003.59 1003.75
1022.74 1022.38 1021.96 1021.46 1021.01 1020.47 1020.07 1019.59 1019.14 1018.77 1018.41 1017.08 1015.76 1015.31 1013.50 1011.23 1008.72 1008.98 1008.27 1008.09 1007.23 1007.06 1006.90 1006.84 1007.07 1006.98 1006.53 1005.50 1004.80 1004.42 1003.73 1003.57 1004.07 1004.74 1004.81 1004.38 1004.32 1004.00 1003.61 1003.46 1003.14 1003.40 1004.02 1004.21 1003.87 1003.43 1004.25
1022.57 1022.19 1021.82 1021.39 1020.92 1020.49 1020.01 1019.50 1019.15 1018.82 1018.53 1018.09 1016.16 1015.57 1014.33 1011.87 1009.72 1009.69 1008.62 1008.14 1008.38 1007.80 1007.02 1007.21 1007.25 1006.77 1006.55 1005.22 1004.54 1004.22 1004.10 1004.96 1004.25 1004.12 1004.62 1004.45 1004.22 1003.90 1003.64 1003.85 1003.40 1004.07 1004.43 1004.38 1003.95 1004.98 1004.67
1022.36 1021.99 1021.64 1021.21 1020.76 1020.32 1019.82 1019.30 1018.97 1018.74 1018.50 1018.03 1016.07 1015.69 1014.94 1012.58 1010.63 1010.35 1009.83 1009.21 1008.80 1008.38 1007.40 1007.65 1007.44 1006.93 1006.19 1005.48 1004.97 1004.76 1004.61 1005.05 1004.88 1004.90 1004.58 1004.27 1004.05 1003.91 1004.17 1004.24 1004.33 1004.99 1004.80 1004.60 1005.07 1005.22 1005.12
1022.13 1021.80 1021.40 1021.00 1020.53 1020.03 1019.44 1018.97 1018.69 1018.55 1018.43 1018.30 1016.67 1015.68 1015.56 1014.32 1011.27 1011.16 1010.56 1010.12 1009.61 1009.00 1008.64 1008.13 1007.79 1007.43 1006.92 1006.23 1006.01 1005.69 1005.28 1005.54 1005.21 1004.57 1005.65 1004.85 1004.37 1003.89 1004.17 1004.17 1005.41 1005.59 1005.47 1005.51 1005.53 1005.31 1005.44
Wind_Speed
16 16 16 16 16 17 15 14 14 13 12 12 12 12 12 12 11 10 9 8 7 7 7 9 10 10 7 8 7 10 15 18 19 14 11 6 3 2 2 5 4 6 7 6 8 10 11
16 17 17 18 17 17 17 15 15 14 12 12 11 11 11 11 10 9 8 7 7 6 6 8 9 9 7 6 3 15 18 20 14 14 8 4 5 7 2 2 2 4 3 6 6 11 11
16 16 17 18 18 17 17 16 16 15 13 12 11 11 11 10 10 9 8 6 7 6 7 7 8 7 7 7 2 15 18 16 12 8 8 3 5 9 5 3 5 3 8 5 4 7 7
16 17 17 18 18 18 17 16 16 16 15 13 11 10 10 10 9 8 7 6 6 6 6 8 7 6 2 3 8 15 16 12 11 6 2 2 3 6 5 2 5 7 9 5 1 6 5
16 17 18 19 20 19 18 16 16 17 16 13 11 9 9 9 7 6 5 7 9 7 5 5 8 8 8 4 11 14 14 12 13 8 4 5 8 4 5 7 8 4 8 6 7 4 6
16 17 18 19 19 18 19 17 17 18 17 15 12 9 8 7 5 4 5 9 1 8 7 6 4 7 7 7 11 12 12 9 10 9 9 8 6 7 7 7 10 8 3 3 2 5 5
18 18 19 20 21 21 21 20 19 19 18 15 12 8 6 5 3 3 4 6 7 7 7 6 4 3 9 11 14 13 15 12 8 9 10 5 8 6 9 8 9 8 7 3 6 7 4
18 19 20 21 22 22 22 20 19 19 19 16 12 8 5 3 3 3 7 5 7 7 6 5 2 2 3 8 9 14 14 11 11 12 5 8 11 9 6 5 8 10 6 4 6 9 2
18 20 20 21 21 23 24 20 20 19 17 16 12 8 4 1 2 5 6 3 2 6 6 7 4 6 8 10 11 17 18 7 10 10 11 12 5 4 11 12 10 8 5 6 1 9 4
20 21 21 21 23 24 23 22 21 21 19 16 12 7 1 4 5 4 4 2 4 4 8 8 10 7 8 8 8 15 15 8 8 10 7 10 8 9 12 10 9 7 3 2 9 10 1
20 22 23 24 25 25 24 24 24 22 20 17 11 5 4 12 5 5 5 6 3 6 4 6 9 7 7 8 18 12 13 7 10 10 8 4 4 7 7 11 7 7 2 8 8 6 5
22 23 24 25 26 25 27 26 24 24 22 19 14 7 7 6 5 4 4 2 6 9 6 8 9 11 14 9 7 13 13 10 5 11 11 15 5 6 7 4 3 4 9 9 6 5 4
21 22 24 25 26 27 27 27 27 26 25 22 11 7 10 3 3 2 4 5 8 3 3 10 13 14 12 9 10 15 15 15 11 12 13 12 15 11 8 5 7 8 14 4 3 3 7
20 23 24 26 25 27 27 29 28 28 27 23 9 11 9 5 3 5 6 8 1 2 3 4 9 11 9 9 13 11 15 14 15 12 3 10 10 12 13 17 9 12 10 9 1 6 5
22 23 24 26 26 28 28 30 30 28 28 23 3 5 4 1 5 5 8 3 5 4 4 9 13 12 7 8 3 11 12 11 13 15 9 7 5 4 4 6 9 8 9 8 8 3 7
20 22 24 26 27 28 29 30 29 32 31 23 4 4 4 5 5 7 8 7 5 3 1 9 11 9 12 13 10 10 11 10 10 12 15 3 5 3 4 7 6 10 2 7 8 3 4
19 21 23 24 27 27 28 30 29 31 33 18 6 5 5 5 5 7 4 7 5 5 2 4 0 6 1 8 8 7 9 6 6 10 8 7 8 7 7 9 11 7 10 5 6 6 4
17 20 20 22 26 28 28 30 29 30 34 6 6 3 4 5 5 1 7 4 3 3 2 3 3 4 1 3 8 4 4 3 2 7 10 12 7 4 5 4 3 7 8 7 10 11 3
17 16 18 20 24 27 27 28 28 27 23 8 5 3 4 5 3 7 6 9 11 10 9 6 6 7 1 3 3 3 2 4 4 8 6 10 8 7 13 11 7 6 3 8 9 7 6
16 17 17 19 21 25 26 29 28 30 24 5 6 3 4 2 1 3 3 5 7 6 10 8 5 1 2 3 2 7 8 4 3 0 4 3 3 11 8 9 5 2 2 6 11 7 11
19 18 17 17 18 22 23 25 28 31 30 5 4 5 4 2 5 4 0 1 6 4 3 5 4 9 7 3 6 5 5 10 7 4 3 8 5 2 4 4 3 2 4 4 8 12 8
19 18 17 17 17 19 21 22 24 29 36 3 6 5 1 2 1 3 3 3 3 5 6 4 3 4 7 6 6 3 4 3 5 3 3 4 4 3 3 3 3 5 1 3 3 2 1
18 18 18 17 16 17 19 19 20 22 24 5 4 1 5 2 3 6 3 2 3 1 3 5 3 4 1 7 8 8 7 5 3 4 2 3 2 3 2 3 4 10 3 3 1 2 1
17 18 18 18 17 15 17 17 16 14 15 4 4 5 5 2 3 2 1 1 2 2 1 3 2 4 6 8 7 8 7 4 3 1 4 2 2 2 4 6 9 10 5 2 3 3 3
16 17 17 18 18 15 16 16 15 13 11 5 4 5 4 4 2 5 2 0 3 4 4 1 4 5 7 7 6 6 6 5 5 1 5 5 3 3 6 7 4 4 4 1 5 8 5
15 16 16 17 17 16 15 16 15 12 11 7 4 4 5 6 4 2 2 1 2 2 6 3 1 5 5 4 3 6 7 6 7 7 4 7 6 7 4 8 6 7 3 2 6 8 8
15 15 16 18 17 17 16 14 14 13 8 6 5 5 5 6 2 4 4 2 2 3 3 2 3 4 5 4 5 5 4 2 6 8 6 8 7 11 9 7 4 5 4 3 10 7 5
14 15 16 17 18 17 17 14 13 12 6 6 5 3 5 4 6 4 4 5 4 5 5 6 6 7 5 5 4 3 4 3 4 3 5 8 9 6 3 5 6 3 3 6 7 4 3
14 14 15 16 17 19 16 14 11 9 3 4 5 1 4 6 7 5 9 10 10 6 4 3 5 3 3 3 3 1 4 3 3 6 5 5 5 2 5 4 5 1 2 3 3 4 4
Wind_Direction
356 351 346 346 349 356 353 346 340 336 334 330 324 315 307 305 307 306 306 307 311 310 311 304 304 305 262 213 67 114 138 152 172 186 194 187 228 285 113 105 107 107 140 135 147 145 132
354 350 347 344 346 351 352 347 344 341 335 330 323 311 303 302 302 302 303 304 302 302 299 297 297 297 248 209 44 142 155 166 178 191 199 214 29 353 40 88 6 85 103 105 150 138 135
352 349 347 343 344 346 351 347 345 343 339 331 324 320 307 303 301 299 298 302 295 293 293 288 286 270 244 66 101 157 165 177 175 207 214 217 317 300 335 178 120 97 158 133 65 131 123
349 348 345 342 342 345 349 348 349 342 340 336 325 320 311 307 300 298 295 285 278 276 281 268 264 247 94 54 144 161 173 176 189 218 220 305 282 281 309 2 196 144 153 152 135 152 141
349 348 345 345 344 345 350 352 350 346 343 338 330 323 316 314 311 299 294 278 264 258 243 241 224 252 132 157 165 165 178 176 182 189 230 287 276 307 205 273 175 95 139 90 148 222 163
345 348 346 346 342 345 354 354 351 348 345 342 335 326 319 311 304 296 280 265 152 184 194 215 265 229 159 166 141 164 196 180 188 206 228 234 232 262 212 266 20 347 351 108 144 154 205
347 348 346 344 345 351 355 352 349 345 343 340 337 333 323 305 294 302 220 179 192 165 212 336 129 59 127 113 145 177 174 174 204 215 227 217 264 265 358 345 322 308 304 265 123 138 162
344 344 345 344 347 350 351 349 345 342 341 339 336 328 322 314 290 298 266 265 30 9 175 209 238 219 137 175 137 161 182 197 206 221 191 220 246 14 325 298 303 313 281 178 107 143 228
343 343 343 342 343 348 348 347 343 340 340 339 337 335 322 270 255 237 262 295 337 318 251 143 177 188 166 200 164 166 192 201 219 219 224 265 317 273 290 298 310 300 280 134 106 153 131
343 341 339 340 345 347 346 343 341 342 342 339 337 339 280 169 234 147 220 102 262 278 222 126 173 155 169 214 159 158 198 208 205 249 248 272 289 283 288 293 323 295 16 213 149 194 148
346 342 342 345 345 346 343 343 341 340 341 336 326 304 235 226 349 223 63 317 195 214 183 142 133 121 161 212 127 177 193 204 241 208 240 215 278 289 287 4 325 15 106 166 168 203 236
347 343 343 344 344 343 344 341 339 339 340 336 323 258 183 191 232 287 311 209 230 228 97 143 138 171 178 186 141 145 182 235 281 244 233 270 285 286 328 355 274 153 137 137 164 229 191
348 345 343 344 344 343 342 341 343 340 343 344 340 192 189 289 49 14 279 218 228 313 160 149 164 173 177 163 149 164 180 195 208 212 228 234 245 234 263 242 162 236 219 185 203 189 55
347 347 344 345 343 341 341 342 343 342 346 350 13 151 207 271 305 304 222 236 16 77 84 133 170 164 174 160 150 170 174 192 221 241 166 204 210 208 200 233 259 213 279 309 277 19 49
348 348 346 345 344 341 342 343 344 343 345 345 256 197 205 163 217 229 254 249 41 29 99 155 167 174 172 189 239 184 207 210 198 211 248 175 223 137 229 220 255 135 231 15 285 172 254
346 348 347 346 345 344 343 344 344 345 342 342 252 219 105 119 160 227 248 71 73 24 186 197 155 194 174 186 204 207 177 191 203 201 249 87 214 179 126 185 200 290 16 215 220 218 287
345 347 346 346 347 346 344 345 345 345 342 341 235 226 93 188 233 227 31 65 63 65 270 282 123 181 235 163 230 184 163 137 208 185 229 249 261 126 172 220 158 171 208 236 321 302 309
342 346 344 346 347 347 347 347 346 348 342 291 287 239 104 239 226 256 63 14 232 84 152 103 35 42 278 185 194 197 138 37 167 181 200 218 308 209 141 119 291 284 309 255 234 170 266
338 340 344 345 346 348 348 347 346 349 358 310 320 355 149 251 162 112 121 100 51 56 45 44 56 44 128 139 174 174 141 48 154 188 193 178 225 168 160 165 176 229 178 270 293 298 186
337 339 340 344 345 349 348 350 346 345 349 285 283 237 132 108 340 338 104 69 106 55 63 52 29 2 145 117 162 147 134 94 131 167 318 238 274 324 25 39 18 188 210 241 263 217 143
341 339 339 339 344 348 348 347 350 344 342 277 340 57 5 59 71 45 93 21 89 82 69 28 73 32 359 72 131 102 131 137 116 133 229 272 99 339 41 32 252 293 318 223 282 1 330
341 341 338 338 342 348 348 346 350 349 334 298 336 330 298 348 189 242 145 72 43 100 355 61 37 41 21 52 19 53 317 29 55 124 200 218 111 243 132 41 268 227 169 276 303 309 121
341 342 340 337 337 347 346 346 350 1 339 350 17 243 286 151 213 241 71 79 47 286 96 58 2 302 28 19 339 326 308 305 340 319 56 310 202 296 253 350 280 225 70 301 310 225 162
341 341 343 341 336 345 345 347 347 4 11 300 19 289 281 151 252 46 147 159 61 28 324 82 332 301 45 307 275 241 234 246 263 273 309 123 225 221 305 277 239 66 65 22 346 124 110
338 340 340 343 336 337 341 343 342 348 3 309 331 315 318 271 321 175 164 220 191 163 190 243 45 355 319 272 255 205 196 198 181 221 223 265 261 170 260 235 308 223 104 293 281 124 126
333 338 338 337 338 332 331 335 331 338 357 306 307 317 293 303 163 39 253 329 261 209 175 176 158 324 292 282 245 235 205 225 183 175 215 212 246 266 179 277 256 56 61 328 281 155 144
325 328 331 334 331 328 325 329 324 330 349 323 304 318 275 278 130 255 241 300 305 250 282 163 354 247 236 254 231 222 164 308 215 211 181 183 222 232 213 259 239 52 348 299 238 73 147
320 323 326 328 329 323 314 313 312 317 335 327 299 294 306 290 288 244 246 246 209 245 270 75 239 195 227 242 263 128 252 130 233 76 189 186 202 202 215 241 237 72 221 282 27 97 113
317 321 324 323 329 327 319 310 294 307 319 323 268 102 311 263 320 313 286 278 267 301 300 201 343 306 1 269 221 227 191 194 316 165 180 212 328 55 307 75 86 66 346 7 29 81 121